Location: Three Guys Observatory
(38.6418°N, 87.1521°W)
Time: 01:31:02
(UTC-04:00)

ISS - Visible Passes

Search period start: 23 August 2014 00:00
Search period end: 02 September 2014 00:00
Orbit: 413 x 419 km, 51.6° (Epoch: 22 August)

Date Brightness Start Highest point End Pass type
(mag) Time Alt. Az. Time Alt. Az. Time Alt. Az.
23 Aug -3.3 21:07:29 10° NW 21:10:49 79° NE 21:13:58 11° SE visible
24 Aug -0.9 21:56:21 10° W 21:58:42 18° SW 22:00:27 13° SSW visible
25 Aug -1.8 21:07:14 10° WNW 21:10:15 32° SW 21:13:15 10° SSE visible
27 Aug -0.3 21:08:28 10° WSW 21:09:22 11° SW 21:10:16 10° SW visible
